^^
Saratoga-Weather Station Historical Data
Daily Summary for June 19, 2021 Units:  English    Metric   Both
Daily Weekly Monthly Yearly Custom
  High: Low: Average:
Temperature: 44.1 °F 43.3 °F 43.7 °F
Dew Point: 42.8 °F 41.7 °F 42.1 °F
Humidity: 95% 93% 94%
Wind Speed: 8.1mph 0mph 1mph
Wind Gust: 8mph - -
Wind- - West
Pressure: 30.5 in 30.5 in -
Precipitation: 0 in    
Historical Graphs
 
 
Tabular Data for June 19, 2021
Time Temperature Dew Point Pressure Wind Wind Speed Wind Gust Humidity Rainfall Rate (Hourly) solar
00:03 43.3 °F 41.7 °F 30.5 in WNW 4 mph 4 mph 94% 0 in 0 W/m2
00:08 43.3 °F 41.7 °F 30.5 in WNW 2 mph 4 mph 94% 0 in 0 W/m2
00:13 43.3 °F 41.7 °F 30.5 in West 2 mph 4 mph 94% 0 in 0 W/m2
00:18 43.3 °F 41.7 °F 30.5 in Calm   2 mph 94% 0 in 0 W/m2
00:23 43.3 °F 41.7 °F 30.5 in WNW 2 mph 2 mph 94% 0 in 0 W/m2
00:28 43.3 °F 41.7 °F 30.5 in NW 0.9 mph 3 mph 94% 0 in 0 W/m2
00:33 43.3 °F 41.7 °F 30.5 in Calm   1 mph 94% 0 in 0 W/m2
00:38 43.3 °F 41.7 °F 30.5 in WSW 0.9 mph 3 mph 94% 0 in 0 W/m2
00:43 43.3 °F 41.7 °F 30.5 in NW 0.9 mph 3 mph 94% 0 in 0 W/m2
00:48 43.3 °F 41.7 °F 30.5 in WSW 0.9 mph 5 mph 94% 0 in 0 W/m2
00:53 43.3 °F 41.7 °F 30.5 in WNW 2.9 mph 4 mph 94% 0 in 0 W/m2
00:58 43.3 °F 41.7 °F 30.5 in Calm   4 mph 94% 0 in 0 W/m2
01:03 43.3 °F 41.7 °F 30.5 in WNW 0.9 mph 4 mph 94% 0 in 0 W/m2
01:08 43.3 °F 41.7 °F 30.5 in WNW 0.9 mph 3 mph 94% 0 in 0 W/m2
01:13 43.3 °F 41.7 °F 30.5 in Calm   5 mph 94% 0 in 0 W/m2
01:18 43.3 °F 41.7 °F 30.5 in WNW 0.9 mph 3 mph 94% 0 in 0 W/m2
01:23 43.3 °F 41.7 °F 30.5 in West 0.9 mph 3 mph 94% 0 in 0 W/m2
01:28 43.5 °F 41.9 °F 30.5 in NW 0.9 mph 2 mph 94% 0 in 0 W/m2
01:33 43.5 °F 41.9 °F 30.5 in Calm   2 mph 94% 0 in 0 W/m2
01:38 43.5 °F 41.9 °F 30.5 in Calm     94% 0 in 0 W/m2
01:43 43.5 °F 41.9 °F 30.5 in Calm   2 mph 94% 0 in 0 W/m2
01:48 43.5 °F 41.9 °F 30.5 in NNE 2 mph 3 mph 94% 0 in 0 W/m2
01:53 43.5 °F 41.9 °F 30.5 in West 2 mph 2 mph 94% 0 in 0 W/m2
01:58 43.5 °F 41.9 °F 30.5 in West 0.9 mph 6 mph 94% 0 in 0 W/m2
02:03 43.5 °F 41.9 °F 30.5 in West 8.1 mph 8 mph 94% 0 in 0 W/m2
02:08 43.7 °F 42.1 °F 30.5 in WSW 2.9 mph 7 mph 94% 0 in 0 W/m2
02:13 43.7 °F 41.7 °F 30.5 in WNW 0.9 mph 4 mph 93% 0 in 0 W/m2
02:18 43.9 °F 41.9 °F 30.5 in NW 2 mph 7 mph 93% 0 in 0 W/m2
02:23 43.9 °F 41.9 °F 30.5 in WNW 2 mph 3 mph 93% 0 in 0 W/m2
02:28 43.9 °F 41.9 °F 30.5 in West 2 mph 3 mph 93% 0 in 0 W/m2
02:33 43.9 °F 41.9 °F 30.5 in WNW 2.9 mph 4 mph 93% 0 in 0 W/m2
02:38 43.9 °F 41.9 °F 30.5 in SSW 2.9 mph 7 mph 93% 0 in 0 W/m2
02:43 43.9 °F 41.9 °F 30.5 in SW 0.9 mph 6 mph 93% 0 in 0 W/m2
02:48 43.9 °F 41.9 °F 30.5 in NW 2 mph 4 mph 93% 0 in 0 W/m2
02:53 43.7 °F 41.7 °F 30.5 in WNW 2 mph 4 mph 93% 0 in 0 W/m2
02:58 43.7 °F 41.7 °F 30.5 in WSW 2.9 mph 4 mph 93% 0 in 0 W/m2
03:03 43.7 °F 41.7 °F 30.5 in SSW 0.9 mph 4 mph 93% 0 in 0 W/m2
03:08 43.5 °F 41.7 °F 30.5 in SW 6 mph 7 mph 93% 0 in 0 W/m2
03:13 43.7 °F 41.7 °F 30.5 in West 0.9 mph 4 mph 93% 0 in 0 W/m2
03:18 43.7 °F 41.7 °F 30.5 in WSW 0.9 mph 2 mph 93% 0 in 0 W/m2
03:23 43.7 °F 41.7 °F 30.5 in WSW 0.9 mph 6 mph 93% 0 in 0 W/m2
03:28 43.7 °F 41.7 °F 30.5 in NW 4.9 mph 7 mph 93% 0 in 0 W/m2
03:33 43.9 °F 41.9 °F 30.5 in WNW 0.9 mph 4 mph 93% 0 in 0 W/m2
03:38 43.9 °F 41.9 °F 30.5 in West 2.9 mph 6 mph 93% 0 in 0 W/m2
03:43 43.9 °F 41.9 °F 30.5 in West 0.9 mph 6 mph 93% 0 in 0 W/m2
03:48 43.9 °F 41.9 °F 30.5 in WNW 0.9 mph 2 mph 93% 0 in 0 W/m2
03:53 43.9 °F 41.9 °F 30.5 in Calm   2 mph 93% 0 in 0 W/m2
03:58 43.9 °F 41.9 °F 30.5 in Calm   2 mph 93% 0 in 0 W/m2
04:03 43.9 °F 41.9 °F 30.5 in WNW 0.9 mph 2 mph 93% 0 in 0 W/m2
04:08 43.9 °F 41.9 °F 30.5 in Calm   2 mph 93% 0 in 0 W/m2
04:13 43.9 °F 41.9 °F 30.5 in West 0.9 mph 3 mph 93% 0 in 0 W/m2
04:18 43.9 °F 41.9 °F 30.5 in West 2.9 mph 3 mph 93% 0 in 0 W/m2
04:23 44.1 °F 42.1 °F 30.5 in West 2 mph 3 mph 93% 0 in 0 W/m2
04:28 44.1 °F 42.1 °F 30.5 in Calm   2 mph 93% 0 in 0 W/m2
04:33 44.1 °F 42.1 °F 30.5 in Calm   2 mph 93% 0 in 0 W/m2
04:38 44.1 °F 42.1 °F 30.5 in Calm     93% 0 in 0 W/m2
04:43 44.1 °F 42.1 °F 30.5 in NNW 0.9 mph 2 mph 93% 0 in 0 W/m2
04:48 44.1 °F 42.1 °F 30.5 in NNW 0.9 mph 1 mph 93% 0 in 0 W/m2
04:53 43.9 °F 41.9 °F 30.5 in Calm   2 mph 93% 0 in 0 W/m2
04:58 43.9 °F 41.9 °F 30.5 in Calm   1 mph 93% 0 in 0 W/m2
05:03 43.9 °F 41.9 °F 30.5 in Calm     93% 0 in 0 W/m2
05:08 43.9 °F 41.9 °F 30.5 in West 0.9 mph 1 mph 93% 0 in 0 W/m2
05:13 43.7 °F 42.1 °F 30.5 in Calm   2 mph 94% 0 in 0 W/m2
05:18 43.7 °F 42.1 °F 30.5 in NW 2 mph 2 mph 94% 0 in 0 W/m2
05:23 43.5 °F 41.9 °F 30.5 in Calm   1 mph 94% 0 in 0 W/m2
05:28 43.7 °F 42.1 °F 30.5 in Calm   1 mph 94% 0 in 0 W/m2
05:33 43.5 °F 41.9 °F 30.5 in Calm   1 mph 94% 0 in 0 W/m2
05:38 43.5 °F 41.9 °F 30.5 in Calm     94% 0 in 0 W/m2
05:44 43.5 °F 41.9 °F 30.5 in Calm     94% 0 in 0 W/m2
05:49 43.5 °F 41.9 °F 30.5 in Calm     94% 0 in 0 W/m2
05:54 43.5 °F 41.9 °F 30.5 in Calm     94% 0 in 0 W/m2
05:59 43.5 °F 41.9 °F 30.5 in Calm     94% 0 in 0 W/m2
06:04 43.5 °F 41.9 °F 30.5 in Calm   3 mph 94% 0 in 0 W/m2
06:09 43.5 °F 41.9 °F 30.5 in Calm   1 mph 94% 0 in 0 W/m2
06:14 43.5 °F 41.9 °F 30.5 in Calm     94% 0 in 0 W/m2
06:19 43.5 °F 41.9 °F 30.5 in NW 0.9 mph 1 mph 94% 0 in 0 W/m2
06:24 43.3 °F 41.7 °F 30.5 in Calm     94% 0 in 0 W/m2
06:29 43.5 °F 41.9 °F 30.5 in Calm   1 mph 94% 0 in 0 W/m2
06:34 43.3 °F 42.1 °F 30.5 in Calm     95% 0 in 0 W/m2
06:39 43.3 °F 42.1 °F 30.5 in Calm   1 mph 95% 0 in 0 W/m2
06:44 43.3 °F 42.1 °F 30.5 in Calm     95% 0 in 0 W/m2
06:49 43.3 °F 42.1 °F 30.5 in Calm     95% 0 in 0 W/m2
06:54 43.5 °F 42.3 °F 30.5 in NW 2 mph 3 mph 95% 0 in 0 W/m2
06:59 43.3 °F 42.1 °F 30.5 in Calm   1 mph 95% 0 in 0 W/m2
07:04 43.5 °F 42.3 °F 30.5 in NW 0.9 mph 3 mph 95% 0 in 0 W/m2
07:09 43.3 °F 42.1 °F 30.5 in NNW 2 mph 3 mph 95% 0 in 0 W/m2
07:14 43.5 °F 42.3 °F 30.5 in Calm     95% 0 in 0 W/m2
07:19 43.5 °F 42.3 °F 30.5 in Calm     95% 0 in 0 W/m2
07:24 43.5 °F 42.3 °F 30.5 in Calm     95% 0 in 0 W/m2
07:29 43.5 °F 42.3 °F 30.5 in Calm   2 mph 95% 0 in 0 W/m2
07:34 43.5 °F 42.3 °F 30.5 in Calm   2 mph 95% 0 in 0 W/m2
07:39 43.5 °F 42.3 °F 30.5 in Calm   4 mph 95% 0 in 0 W/m2
07:44 43.5 °F 42.3 °F 30.5 in NNE 0.9 mph 2 mph 95% 0 in 0 W/m2
07:49 43.5 °F 42.3 °F 30.5 in NNW 0.9 mph 2 mph 95% 0 in 0 W/m2
07:54 43.5 °F 42.3 °F 30.5 in Calm     95% 0 in 0 W/m2
07:59 43.5 °F 42.3 °F 30.5 in Calm     95% 0 in 0 W/m2
08:04 43.5 °F 42.3 °F 30.5 in Calm     95% 0 in 0 W/m2
08:09 43.5 °F 42.3 °F 30.5 in Calm     95% 0 in 0 W/m2
08:14 43.5 °F 42.3 °F 30.5 in Calm     95% 0 in 5 W/m2
08:19 43.5 °F 42.3 °F 30.5 in Calm     95% 0 in 7 W/m2
08:24 43.7 °F 42.4 °F 30.5 in Calm   3 mph 95% 0 in 11 W/m2
08:29 43.7 °F 42.4 °F 30.5 in WNW 4.9 mph 8 mph 95% 0 in 14 W/m2
08:34 43.7 °F 42.4 °F 30.5 in WNW 2.9 mph 4 mph 95% 0 in 16 W/m2
08:39 43.9 °F 42.6 °F 30.5 in Calm   2 mph 95% 0 in 16 W/m2
08:44 43.9 °F 42.6 °F 30.5 in WNW 0.9 mph 4 mph 95% 0 in 16 W/m2
08:49 43.9 °F 42.6 °F 30.5 in WNW 2 mph 2 mph 95% 0 in 16 W/m2
08:54 43.9 °F 42.6 °F 30.5 in WNW 0.9 mph 2 mph 95% 0 in 19 W/m2
08:59 43.9 °F 42.6 °F 30.5 in Calm   1 mph 95% 0 in 21 W/m2
09:04 43.9 °F 42.6 °F 30.5 in Calm     95% 0 in 25 W/m2
09:09 44.1 °F 42.8 °F 30.5 in Calm     95% 0 in 26 W/m2
09:14 44.1 °F 42.8 °F 30.5 in Calm     95% 0 in 30 W/m2
Juneau County Weather
Compliments of Weather Underground - 2 mb